• Join FlightAware (Why Join?)
  • Login
  • US Flag GB Flag 
14:57 EDT


 

Airport Tracker/Info


-or-


 

Live Flight TrackerFlight Track Log ✈ RPA3457 ✈ 27-Apr-2013 ✈ KDCA - KEYW

Flight Track Log - Related Links

Times and Time Zones

All times are in EDT time to prevent confusion due to time zone crossing. See the RPA3457 flight status page for this flight to view local times or setup timezone preferences in your user account.

Time Position Orientation Groundspeed Altitude Reporting Facility
EDT Latitude Longitude Course Direction KTS MPH feet Rate Location/Type
10:17 38.9167 -77.1000 322° Northwest 213 245 2,700  Level Potomac TRACON
10:18 38.6174 -77.2993 218° Southwest  Level FlightAware Approximate
10:18 38.9667 -77.1500 322° Northwest 270 311 5,300  Level Potomac TRACON
10:19 38.5333 -77.3834 225° Southwest  Level FlightAware Approximate
10:20 38.4580 -77.4802 225° Southwest  Level FlightAware Approximate
10:20 38.8783 -77.2903 231° Southwest 206 237 10,800  Level Washington Center
10:21 38.3758 -77.5625 233° Southwest  Level FlightAware Approximate
10:21 38.7944 -77.3389 204° Southwest 270 311 13,200  Level Washington Center
10:22 38.7103 -77.3875 204° Southwest 310 357 15,800 2,400 Climbing Washington Center
10:23 38.6178 -77.4411 204° Southwest 342 394 18,000 2,160 Climbing Washington Center
10:24 38.5272 -77.4919 204° Southwest 361 415 20,200 2,160 Climbing Washington Center
10:25 38.4386 -77.5558 209° Southwest 367 422 22,400 1,860 Climbing Washington Center
10:26 38.3703 -77.6519 228° Southwest 362 417 24,000 1,560 Climbing Washington Center
10:27 38.3019 -77.7533 229° Southwest 368 423 25,600 1,620 Climbing Washington Center
10:28 38.2269 -77.8542 227° Southwest 385 443 27,200 1,680 Climbing Washington Center
10:29 38.1561 -77.9550 228° Southwest 390 449 29,100 1,500 Climbing Washington Center
10:30 38.0961 -78.0431 229° Southwest 390 449 30,300 1,080 Climbing Washington Center
10:31 38.0231 -78.1433 227° Southwest 385 443 31,300 1,080 Climbing Washington Center
10:32 37.9333 -78.2378 220° Southwest 380 437 32,500 1,140 Climbing Washington Center
10:33 37.8461 -78.3189 216° Southwest 386 444 33,600 900 Climbing Washington Center
10:34 37.7650 -78.3947 216° Southwest 398 458 34,300 660 Climbing Washington Center
10:35 37.6778 -78.4756 216° Southwest 404 465 35,000 660 Climbing Washington Center
10:36 37.5900 -78.5611 218° Southwest 404 465 35,700 480 Climbing Washington Center
10:37 37.4983 -78.6442 216° Southwest 404 465 36,000 120 Climbing Washington Center
10:38 37.4086 -78.7267 216° Southwest 404 465 36,000  Level Washington Center
10:39 37.3103 -78.8192 217° Southwest 404 465 36,000  Level Washington Center
10:40 37.2203 -78.9017 216° Southwest 404 465 36,000  Level Washington Center
10:41 37.1303 -78.9836 216° Southwest 404 465 36,000  Level Washington Center
10:42 37.0425 -79.0656 217° Southwest 404 465 36,000  Level Washington Center
10:43 36.9525 -79.1500 217° Southwest 404 465 36,000  Level Washington Center
10:44 36.8731 -79.2242 217° Southwest 404 465 36,000  Level Washington Center
10:45 36.7806 -79.3081 216° Southwest 404 465 36,000  Level Washington Center
10:46 36.6906 -79.3892 216° Southwest 404 465 36,000  Level Washington Center
10:47 36.6022 -79.4728 217° Southwest 399 459 36,000  Level Washington Center
10:48 36.5011 -79.5633 216° Southwest 404 465 36,000  Level Washington Center
10:51 36.2314 -79.8044 216° Southwest 423 487 36,000  Level Atlanta Center
10:52 36.1383 -79.8867 216° Southwest 418 481 36,000  Level Atlanta Center
10:53 36.0450 -79.9683 215° Southwest 418 481 36,000  Level Atlanta Center
10:54 35.9386 -80.0275 204° Southwest 418 481 36,000  Level Atlanta Center
10:55 35.8153 -80.0847 201° Southwest 423 487 36,000  Level Atlanta Center
10:56 35.7064 -80.1439 204° Southwest 429 494 36,000  Level Atlanta Center
10:57 35.5936 -80.2053 204° Southwest 434 499 36,000  Level Atlanta Center
10:58 35.4806 -80.2592 201° Southwest 434 499 36,000  Level Atlanta Center
10:59 35.3739 -80.3150 203° Southwest 434 499 36,000  Level Atlanta Center
11:00 35.2608 -80.3708 202° Southwest 429 494 36,000  Level Atlanta Center
11:01 35.1497 -80.4267 202° Southwest 436 502 36,000  Level Atlanta Center
11:02 35.0386 -80.4822 202° Southwest 436 502 36,000  Level Atlanta Center
11:04 34.8603 -80.5700 202° Southwest 461 531 36,000  Level Jacksonville Center
11:05 34.7506 -80.6211 201° Southwest 446 513 36,000  Level Jacksonville Center
11:06 34.6389 -80.6794 203° Southwest 440 506 36,000 -120 Level Jacksonville Center
11:07 34.5233 -80.7381 203° Southwest 450 518 35,800 -1,020 Descending Jacksonville Center
11:08 34.4094 -80.7936 202° Southwest 444 511 34,000 -900 Descending Jacksonville Center
11:09 34.3058 -80.8464 203° Southwest 422 486 34,000  Level Jacksonville Center
11:10 34.2108 -80.8914 201° Southwest 400 460 34,000  Level Jacksonville Center
11:11 34.1050 -80.9389 200° South 392 451 34,000  Level Jacksonville Center
11:12 34.0036 -80.9861 201° Southwest 392 451 34,000  Level Jacksonville Center
11:13 33.9228 -81.0256 202° Southwest 392 451 34,000  Level Jacksonville Center
11:14 33.8067 -81.0831 202° Southwest 397 457 34,000  Level Jacksonville Center
11:15 33.7031 -81.1350 203° Southwest 402 463 34,000  Level Jacksonville Center
11:16 33.5994 -81.1844 202° Southwest 402 463 34,000  Level Jacksonville Center
11:17 33.4958 -81.2364 203° Southwest 402 463 34,000  Level Jacksonville Center
11:18 33.3922 -81.2881 203° Southwest 402 463 34,000  Level Jacksonville Center
11:19 33.2883 -81.3369 201° Southwest 407 468 34,000  Level Jacksonville Center
11:20 33.1847 -81.3886 203° Southwest 407 468 34,000  Level Jacksonville Center
11:21 33.0789 -81.4397 202° Southwest 407 468 34,000  Level Jacksonville Center
11:22 32.9750 -81.4911 203° Southwest 412 474 34,000  Level Jacksonville Center
11:23 32.8733 -81.5419 203° Southwest 412 474 34,000  Level Jacksonville Center
11:24 32.7672 -81.5906 201° Southwest 412 474 34,000  Level Jacksonville Center
11:25 32.6531 -81.6467 202° Southwest 412 474 34,000  Level Jacksonville Center
11:26 32.5597 -81.6922 202° Southwest 412 474 34,000  Level Jacksonville Center
11:27 32.4453 -81.7478 202° Southwest 406 467 34,000  Level Jacksonville Center
11:28 32.3372 -81.7886 198° South 412 474 34,000  Level Jacksonville Center
11:29 32.2350 -81.8094 190° South 417 480 34,000  Level Jacksonville Center
11:30 32.1100 -81.8356 190° South 417 480 34,000  Level Jacksonville Center
11:31 32.0058 -81.8564 190° South 417 480 34,000  Level Jacksonville Center
11:32 31.8786 -81.8822 190° South 417 480 34,000  Level Jacksonville Center
11:33 31.7661 -81.9053 190° South 422 486 34,000  Level Jacksonville Center
11:34 31.6617 -81.9283 191° South 422 486 34,000  Level Jacksonville Center
11:35 31.5347 -81.9542 190° South 427 491 34,000  Level Jacksonville Center
11:36 31.4303 -81.9747 190° South 427 491 34,000  Level Jacksonville Center
11:37 31.3136 -82.0003 191° South 427 491 34,000  Level Jacksonville Center
11:38 31.1969 -82.0256 190° South 427 491 34,000  Level Jacksonville Center
11:39 31.0822 -82.0483 190° South 427 491 34,000  Level Jacksonville Center
11:40 30.9656 -82.0736 191° South 427 491 34,000  Level Jacksonville Center
11:41 30.8486 -82.0964 189° South 427 491 34,000  Level Jacksonville Center
11:42 30.7319 -82.1217 191° South 432 497 34,000  Level Jacksonville Center
11:43 30.6172 -82.1442 190° South 427 491 34,000  Level Jacksonville Center
11:44 30.5044 -82.1619 188° South 427 491 34,000  Level Jacksonville Center
11:45 30.3856 -82.1869 190° South 427 491 34,000 -300 Level Jacksonville Center
11:46 30.2689 -82.2094 189° South 427 491 33,500 -540 Descending Jacksonville Center
11:47 30.1519 -82.2344 190° South 427 491 33,000 -300 Descending Jacksonville Center
11:48 30.0372 -82.2567 190° South 427 491 33,000  Level Jacksonville Center
11:49 29.9081 -82.2889 192° South 427 491 33,000  Level Jacksonville Center
11:50 29.7914 -82.3111 189° South 427 491 33,000  Level Jacksonville Center
11:51 29.6869 -82.3283 188° South 427 491 33,000  Level Jacksonville Center
11:52 29.5703 -82.3528 190° South 427 491 33,000  Level Jacksonville Center
11:53 29.4514 -82.3775 190° South 427 491 33,000  Level Jacksonville Center
11:54 29.3344 -82.3972 188° South 432 497 33,000  Level Jacksonville Center
11:55 29.2050 -82.4239 190° South 427 491 33,000  Level Jacksonville Center
11:56 29.0883 -82.4458 189° South 427 491 33,000  Level Jacksonville Center
11:57 28.9692 -82.4369 176° South 427 491 33,000  Level Jacksonville Center
11:58 28.8483 -82.4303 177° South 422 486 33,000  Level Jacksonville Center
11:59 28.7292 -82.4214 176° South 427 491 33,000  Level Jacksonville Center
12:00 28.6081 -82.4103 175° South 432 497 33,000  Level Jacksonville Center
12:01 28.4892 -82.4014 176° South 432 497 33,000  Level Jacksonville Center
12:02 28.3722 -82.3925 176° South 432 497 33,000  Level Jacksonville Center
12:03 28.2492 -82.3858 177° South 432 497 33,000  Level Jacksonville Center
12:05 27.9517 -82.3494 174° South 434 499 33,000  Level Miami Center
12:06 27.8386 -82.3017 160° South 434 499 33,000  Level Miami Center
12:07 27.7153 -82.2514 160° South 428 493 33,000  Level Miami Center
12:08 27.6022 -82.2061 160° South 433 498 33,000  Level Miami Center
12:09 27.4892 -82.1589 160° South 433 498 33,000  Level Miami Center
12:10 27.3864 -82.1189 161° South 433 498 33,000  Level Miami Center
12:11 27.2631 -82.0667 159° South 433 498 33,000  Level Miami Center
12:12 27.1500 -82.0219 161° South 438 504 33,000 -540 Level Miami Center
12:13 27.0344 -81.9772 161° South 438 504 32,000 -1,200 Descending Miami Center
12:14 26.9275 -81.9375 162° South 438 504 30,600 -1,440 Descending Miami Center
12:15 26.8122 -81.8906 160° South 438 504 29,200 -840 Descending Miami Center
12:16 26.7011 -81.8464 160° South 438 504 29,000 -120 Descending Miami Center
12:17 26.5856 -81.7997 160° South 438 504 29,000  Level Miami Center
12:18 26.4592 -81.7781 171° South 438 504 29,000  Level Miami Center
12:19 26.3400 -81.7778 180° South 426 490 29,000  Level Miami Center
12:20 26.2211 -81.7797 181° South 426 490 29,000 -540 Level Miami Center
12:21 26.0997 -81.7842 182° South 426 490 28,000 -1,200 Descending Miami Center
12:22 25.9869 -81.7842 180° South 421 484 26,600 -1,380 Descending Miami Center
12:23 25.8764 -81.7864 181° South 409 471 25,300 -1,320 Descending Miami Center
12:24 25.7675 -81.7889 181° South 401 461 24,000 -1,500 Descending Miami Center
12:25 25.6611 -81.7892 180° South 390 449 22,300 -1,740 Descending Miami Center
12:26 25.5589 -81.7894 180° South 383 441 20,300 -1,980 Descending Miami Center
12:27 25.4375 -81.7914 181° South 377 434 18,000 -2,040 Descending Miami Center
12:28 25.3394 -81.7922 180° South 365 420 16,300 -1,800 Descending Miami Center
12:29 25.2433 -81.7950 181° South 360 414 14,500 -1,800 Descending Miami Center
12:30 25.1492 -81.7958 180° South 348 400 12,700 -1,800 Descending Miami Center
12:31 25.0575 -81.7967 180° South 348 400 10,900 -1,560 Descending Miami Center
12:32 24.9767 -81.8369 204° Southwest 320 368 9,600 -1,620 Descending Miami Center
12:33 24.9006 -81.8683 201° Southwest 313 360 7,700 -2,160 Descending Miami Center
12:34 24.8208 -81.8764 185° South 298 343 5,300 -2,340 Descending Miami Center
12:35 24.7581 -81.8786 182° South 278 320 3,100 -1,920 Descending Miami Center
12:36 24.6892 -81.8781 180° South 264 304 1,500 -780 Descending Miami Center
12:37 24.6286 -81.8800 182° South 243 280 1,600  Climbing Miami Center
12:38 24.5786 -81.8803 180° South 210 242 1,600  Level Miami Center